Regional Weather Roundup
Issued by NWS

Home | Current Version | Previous Version | Graphics & Text | Print | Product List | Glossary On
Versions: 1 2 3 4 5 6 7 8 9 10 11 12 13 14 15 16 17 18 19 20 21 22 23 24 25 26 27 28 29 30 31 32 33 34 35 36 37 38 39 40 41 42 43 44 45 46 47 48 49 50
000
ASUS45 KCYS 231110
RWRWY

WYOMING REGIONAL WEATHER ROUNDUP
NATIONAL WEATHER SERVICE CHEYENNE WY
400 AM MST SUN NOV 23 2014

NOTE:  "FAIR" INDICATES FEW OR NO CLOUDS BELOW 12,000 FEET
WITH NO SIGNIFICANT WEATHER AND/OR OBSTRUCTIONS TO VISIBILITY.

WYZ001-231200-
YELLOWSTONE NATIONAL PARK

CITY           SKY/WX    TMP DP  RH WIND       PRES   REMARKS
LK YELLOWSTONE   N/A     17  13  84 W10       29.82S WCI   5
W YELLOWSTONE  NOT AVBL

$$
WYZ002>013-054>058-071-098>099-231200-
NORTHERN WYOMING

CITY           SKY/WX    TMP DP  RH WIND       PRES   REMARKS
JACKSON        CLOUDY    19  18  93 N9G18     29.86R VSB 1   WCI   9
CODY           PTCLDY    30  12  47 CALM      29.75R
GREYBULL       CLOUDY    19  17  92 NW3       29.76R
WORLAND        PTCLDY    24  20  84 S8        29.76R WCI  15
SHERIDAN       PTCLDY    32  18  56 NW16      29.72R WCI  21
BUFFALO          N/A     28  12  51 E3        29.71R
GILLETTE       NOT AVBL
HULETT           N/A    N/A N/A N/A MISG        N/A
NEWCASTLE      FAIR      28  19  69 N12       29.68R WCI  18

$$
WYZ014>020-022>026-101>103-231200-
CENTRAL WYOMING

CITY           SKY/WX    TMP DP  RH WIND       PRES   REMARKS
BIG PINEY      FLURRIES  25  17  72 NE3       29.82R
PINEDALE       LGT SNOW  21  19  93 CALM      29.82S
DUBOIS         PTSUNNY   19  12  73 NW10      29.77R WCI   8
LANDER         NOT AVBL
RIVERTON       PTCLDY    28  13  53 W15       29.75S WCI  16
CASPER         PTCLDY    25  18  74 W6        29.75R WCI  18
DOUGLAS        CLEAR    N/A N/A N/A W7        29.72R

$$
WYZ021-027>030-104>119-231200-
SOUTHERN WYOMING

CITY           SKY/WX    TMP DP  RH WIND       PRES   REMARKS
EVANSTON       CLOUDY    23  21  92 W7        29.91R WCI  15
KEMMERER       FLURRIES  25  23  93 W21       29.83S WCI  10
FORT BRIDGER   CLOUDY    26  23  87 W21G26    29.89R WCI  12
ROCK SPRINGS   MOCLDY    25  19  78 W22       29.82F WCI  10
DIXON          PTSUNNY   24  21  87 CALM      29.84S
RAWLINS        PTCLDY    22  17  81 W14G21    29.78S WCI   9
SARATOGA       FAIR      23  19  86 W7        29.78F WCI  15
LARAMIE        MOCLDY    26  16  65 W16       29.70R WCI  14
CHEYENNE       CLOUDY    29  22  75 N10       29.68S WCI  20
TORRINGTON     PTCLDY    34  22  61 NW8       29.71R WCI  27
PINE BLUFFS    FAIR      30  27  86 NW8       29.69R WCI  23

$$


USA.gov is the U.S. government's official web portal to all federal, state and local government web resources and services.